#timestamp,LO_Frequency,Hit,StdDev 
1596589215.8,286046996.9,N
1596589235.6,286046999.3,N
1596589255.5,286046996.5,N
1596589275.3,286046999.6,N
1596589295.2,286046999.6,N
1596589315.9,286046997.2,N
1596589335.7,286046996.9,N
1596589355.6,286046996.5,N
1596589375.4,286046999.5,N
1596589395.2,286046999.1,N
1596589415.1,286046998.3,N
1596589416.0,286046998.3,N
1596589435.8,286047001.1,N
1596589455.7,286046999.0,N
1596589475.5,286046997.0,N
1596589495.4,286046997.4,N
1596589515.2,286046998.0,N
1596589535.0,286046995.7,Y
1596589535.9,286046995.7,P
1596589555.8,286046997.2,N
1596589575.6,286046997.2,N
1596589595.4,286046998.3,N
1596589615.3,286046998.5,N
1596589635.1,286046999.4,N
1596589655.9,286047000.0,N
1596589675.7,286046999.9,N
1596589695.5,286047000.8,N
1596589715.4,286046998.9,N
1596589735.2,286046998.7,N
1596589755.1,286047000.6,N
1596589756.0,286047000.6,N
1596589775.8,286047001.0,N
1596589795.6,286047001.0,N
1596589815.5,286047000.4,N
1596589835.3,286046998.5,N
1596589855.1,286046996.6,N
1596589875.9,286046998.3,N
1596589895.7,286046996.5,N
1596589915.6,286046997.1,N
1596589935.4,286046997.6,N
1596589955.2,286046997.2,N
1596589975.1,286046998.4,N
1596589976.0,286046998.4,N
1596589995.8,286047001.0,N
1596590015.7,286046999.4,N
1596590035.5,286046998.3,N
1596590055.3,286046999.5,N
1596590075.2,286046998.3,N
1596590095.9,286046999.0,N
1596590115.7,286046998.9,N
1596590135.6,286047001.1,N
1596590155.4,286047001.2,N
1596590175.3,286047000.0,N
1596590195.1,286047000.9,N
1596590196.0,286047000.9,N
1596590215.8,286047001.0,N
1596590235.7,286047000.9,N
1596590255.5,286046998.9,N
1596590275.4,286046999.1,N
1596590295.2,286046996.5,N
1596590315.0,286046996.5,N
1596590315.9,286046996.5,N
1596590335.8,286047001.1,N
1596590355.6,286047002.3,N
1596590375.4,286046999.8,N
1596590395.3,286046999.8,N
1596590415.1,286047000.6,N
1596590435.9,286047000.3,N
1596590455.7,286047000.2,N
1596590475.5,286046998.6,N
1596590495.4,286047001.2,N
1596590515.2,286046999.9,N
1596590535.0,286047002.3,N
1596590536.0,286047002.3,N
1596590555.8,286047000.5,N
1596590575.6,286047000.0,N
1596590595.5,286047000.3,N
1596590615.3,286047002.8,N
1596590635.1,286047000.5,N
1596590655.9,286047000.5,N
1596590675.7,286047000.8,N
1596590695.6,286046998.3,N
1596590715.4,286047000.8,N
1596590735.2,286046999.9,N
1596590755.1,286047002.2,N
1596590756.0,286047002.2,N
1596590775.8,286047000.6,N
1596590795.7,286047000.3,N
1596590815.5,286046999.8,N
1596590835.3,286047000.6,N
1596590855.2,286046999.9,N
1596590875.0,286047000.4,N
1596590875.9,286047000.4,N
1596590895.7,286047000.7,N
1596590915.6,286047000.5,N
1596590935.4,286047001.0,N
1596590955.3,286046998.1,N
1596590975.1,286047002.3,N
1596590976.0,286047002.3,N
1596590995.8,286047004.4,Y
1596591015.7,286046999.7,P
1596591035.5,286047000.9,N
1596591055.4,286047000.7,N
1596591075.2,286047000.4,N
1596591095.1,286046998.1,Y
1596591096.0,286046998.1,P
1596591115.8,286047000.8,N
1596591135.6,286047001.1,N
1596591155.5,286047000.5,N
1596591175.3,286047001.9,N
1596591195.2,286046998.6,N
1596591215.0,286046998.8,N
1596591215.9,286046998.8,N
1596591235.8,286047002.5,N
1596591255.6,286047004.0,N
1596591275.5,286047001.9,N
1596591295.3,286047002.4,N
1596591315.1,286047000.1,N
1596591335.9,286046999.7,N
1596591355.7,286047001.9,N
1596591375.6,286047001.8,N
1596591395.4,286047002.8,N
1596591415.2,286047002.8,N
1596591435.1,286047002.1,N
1596591436.0,286047002.1,N
1596591455.8,286047002.4,N
1596591475.7,286047001.7,N
1596591495.5,286047004.0,N
1596591515.3,286047002.0,N
1596591535.2,286047001.9,N
1596591555.0,286047000.1,N
1596591556.0,286047000.1,N
1596591575.8,286047002.6,N
1596591595.6,286047002.8,N
1596591615.5,286046999.8,N
1596591635.3,286047002.3,N
1596591655.1,286047002.8,N
1596591675.9,286047003.8,N
1596591695.7,286047004.4,N
1596591715.6,286047001.3,N
1596591735.4,286047003.6,N
1596591755.2,286047003.4,N
1596591775.1,286047003.1,N
1596591776.0,286047003.1,N
1596591795.8,286047004.2,Y
1596591815.7,286047000.9,P
1596591835.5,286047000.5,N
1596591855.3,286046999.8,N
1596591875.2,286046999.9,N
1596591895.0,286047003.1,Y
1596591895.9,286047003.1,P
1596591915.8,286047003.4,N
1596591935.6,286047002.7,N
1596591955.4,286047000.7,N
1596591975.3,286047002.5,N
1596591995.1,286047004.3,Y
1596592015.8,286047001.0,P
1596592035.7,286046999.1,N
1596592055.5,286046999.0,N
1596592075.4,286047002.4,N
1596592095.2,286046999.0,N
1596592115.0,286047000.2,N
1596592115.9,286047000.2,N
1596592135.8,286047000.4,N
1596592155.6,286046999.4,N
1596592175.5,286046999.1,N
1596592195.3,286046997.2,N
1596592215.1,286046997.4,N
1596592235.9,286046997.7,N
1596592255.7,286046997.2,N
1596592275.5,286046995.4,N
1596592295.4,286046997.0,N
1596592315.2,286046997.3,N
1596592335.1,286046999.3,N
1596592336.0,286046999.3,N
1596592355.8,286046997.5,N
1596592375.6,286046996.9,N
1596592395.5,286046997.2,N
1596592415.3,286046996.7,N
1596592435.1,286046999.3,N
1596592455.9,286046999.1,N
1596592475.7,286046996.6,N
1596592495.6,286046997.0,N
1596592515.4,286046997.5,N
1596592535.2,286046997.2,N
1596592555.1,286046995.0,Y
1596592556.0,286046995.0,P
1596592575.8,286046997.3,N
1596592595.7,286046998.1,N
1596592615.5,286046999.0,N
1596592635.3,286046998.5,N
1596592655.2,286046998.9,N
1596592675.0,286046999.6,N
1596592675.9,286046999.6,N
1596592695.8,286046998.7,N
1596592715.6,286046998.1,N
1596592735.4,286047002.4,N
1596592755.3,286047000.9,N
1596592775.1,286046998.5,N
1596592795.8,286047001.2,N
